Zurück zum Katalog

IRIDIUM 33 DEB

AktivPO
NORAD 46974·DEBRIS·🇺🇸 United States

Gestartet Sep 14, 1997 von Baikonur Cosmodrome

Loading…

Nächste Überflüge (nächste 24 Stunden)

TLE

AktuellSource: Space-Track

Epoche: Sep 14, 2026, 12:08 UTC

1 46974U 97051ACG 26257.50568446  .00004933  00000-0  12256-2 0  9999
2 46974  86.3013 344.3023 0083564 349.9073  10.0448 14.49525895614979

Verfolge IRIDIUM 33 DEB in Echtzeit mit AllMySat

Download on the App Store